CAPE
1379 1335 1305 1286 1228 1096 754 583 632 446 0 0 0 0 0 0 0 0 0 0 0 0 0 0 0 0 0 0 0 0 0 0 0 0 0 0 0 0 0 0 0 0
1390 1369 1339 1269 1177 1043 772 635 629 184 0 0 0 0 0 0 0 0 0 0 0 0 0 0 0 0 0 0 0 0 0 0 0 0 0 0 0 0 0 0 0 0
1325 1261 1258 1134 970 896 784 696 547 124 55 304 283 0 0 282 286 0 0 0 0 0 0 0 0 0 0 0 0 0 0 0 0 0 0 0 0 0 0 0 0 0
1363 1277 1156 968 824 843 774 735 494 431 463 429 370 301 58 283 0 60 0 0 0 0 0 0 0 0 0 0 0 0 0 0 0 0 0 0 0 0 0 0 0 0
1260 1208 1105 943 851 839 786 805 589 545 552 518 415 345 315 231 56 0 0 0 0 0 0 0 0 0 0 0 0 0 0 0 0 0 0 0 0 0 0 0 0 0
1322 1199 1094 950 905 845 854 884 701 682 635 549 479 421 375 302 0 0 0 0 0 0 0 0 0 0 0 0 0 0 0 0 0 0 0 0 0 0 0 0 0 0
1211 1115 1051 1064 1025 933 946 939 788 761 672 581 524 508 460 319 0 0 0 0 0 0 0 0 0 0 0 0 0 0 0 0 0 0 0 0 0 0 0 0 0 0
1291 1211 1140 1110 1074 1017 1013 932 871 806 709 608 575 579 530 369 0 0 0 0 0 0 0 0 0 0 0 0 0 0 0 0 0 0 0 0 0 0 0 0 0 66
1332 1252 1189 1159 1121 1053 1031 968 919 856 740 631 577 579 461 385 332 4 0 0 0 0 0 0 0 0 0 0 0 0 0 0 0 0 62 129 63 141 144 111 85 70
1370 1294 1239 1232 1230 1154 1047 978 911 846 724 630 584 527 427 404 373 7 0 0 0 0 0 0 0 0 0 0 0 0 0 0 177 186 188 204 139 176 142 71 41 42
1400 1343 1331 1375 1342 1161 1055 961 838 782 706 638 564 484 464 459 369 0 0 0 0 0 0 0 0 0 0 0 0 0 0 199 227 231 0 202 40 112 64 26 31 42
1417 1388 1419 1436 1364 1147 1067 990 815 771 704 612 549 521 512 511 406 13 0 0 0 0 0 0 0 0 0 0 0 0 119 215 185 191 0 0 75 97 60 34 0 0
1434 1449 1467 1498 1375 1159 1074 982 764 706 675 552 536 529 585 618 531 201 0 0 0 0 211 197 0 0 0 0 0 0 0 0 0 0 0 0 24 16 4 0 0 0
1429 1486 1518 1480 1352 1167 1036 873 710 624 628 521 541 610 690 697 659 315 0 0 0 149 237 233 102 0 0 0 0 0 0 0 0 0 48 35 0 0 0 0 0 0
1407 1452 1480 1434 1346 1194 1002 836 672 620 696 648 628 670 705 705 635 306 207 189 50 226 277 276 238 0 0 0 0 0 0 0 220 0 0 0 0 0 0 0 0 0
1438 1432 1449 1460 1360 1199 993 814 621 738 795 719 701 740 718 679 626 313 219 199 91 147 276 302 304 180 0 0 0 0 88 248 0 0 0 29 12 0 0 0 0 0
1442 1450 1424 1425 1353 1185 1043 858 714 840 832 745 731 729 754 746 672 374 225 206 276 239 291 333 354 306 270 214 233 275 270 225 0 0 22 58 29 0 0 0 0 0
1468 1445 1448 1426 1330 1124 1063 950 776 879 838 806 813 824 835 864 804 426 248 207 210 249 321 373 374 299 299 308 299 261 204 96 0 16 54 56 26 0 0 0 0 0
1462 1439 1416 1353 1221 1135 1094 1028 792 836 846 843 852 881 919 932 803 467 296 245 238 243 346 387 368 352 344 283 267 234 202 193 111 5 41 42 5 0 0 0 0 0
1456 1402 1353 1250 1137 1063 983 1025 944 902 871 857 906 948 996 964 799 568 396 334 289 335 402 418 373 339 296 260 254 236 202 0 27 10 11 10 0 0 0 0 0 0
1516 1475 1457 1389 1164 1013 1041 1055 889 864 896 894 944 1016 1053 908 796 649 510 386 345 436 470 410 330 288 88 240 241 178 127 17 12 0 0 0 0 0 0 0 0 0
1661 1678 1661 1578 1303 952 927 961 853 802 904 948 1026 1039 918 806 764 720 647 445 365 458 459 374 306 287 85 128 179 176 171 158 89 7 0 0 0 0 0 0 0 0
1637 1609 1654 1637 1362 1244 1008 924 814 692 904 1010 1040 952 780 696 654 661 642 536 393 387 360 323 348 309 261 188 173 166 122 101 97 19 0 0 0 0 0 0 0 0
1574 1571 1538 1457 1387 1097 932 904 771 696 838 977 860 743 697 698 610 615 563 561 420 337 316 144 304 330 176 178 120 85 65 40 43 35 0 0 0 0 0 0 0 0
1618 1526 1500 1482 1493 1109 909 862 756 789 934 879 797 721 737 726 680 514 435 358 319 300 291 170 155 106 94 89 43 101 69 49 28 40 43 0 0 0 0 0 0 0
1679 1576 1381 1375 1187 836 792 799 650 779 951 886 907 874 915 779 474 367 210 245 380 398 404 370 238 172 58 36 81 75 31 8 8 8 42 17 2 3 3 0 0 0
Wind_Speed
27 28 30 29 26 24 24 22 19 18 nan nan nan nan nan nan nan nan nan nan nan nan nan nan nan nan nan nan nan nan nan nan nan nan nan nan nan nan nan nan nan nan
27 29 29 29 26 23 22 21 19 18 nan nan nan nan nan nan nan nan nan nan nan nan nan nan nan nan nan nan nan nan nan nan nan nan nan nan nan nan nan nan nan nan
28 29 29 28 26 24 23 20 18 17 nan 19 19 nan nan 20 21 nan nan nan nan nan nan nan nan nan nan nan nan nan nan nan nan nan nan nan nan nan nan nan nan nan
28 29 28 27 26 25 23 21 17 17 19 19 17 18 nan 20 nan nan nan nan nan nan nan nan nan nan nan nan nan nan nan nan nan nan nan nan nan nan nan nan nan nan
28 28 27 27 26 25 23 20 18 18 19 18 17 19 20 21 nan nan nan nan nan nan nan nan nan nan nan nan nan nan nan nan nan nan nan nan nan nan nan nan nan nan
27 27 27 27 26 25 22 19 17 18 19 18 18 19 20 22 nan nan nan nan nan nan nan nan nan nan nan nan nan nan nan nan nan nan nan nan nan nan nan nan nan nan
27 27 27 27 26 23 21 18 17 18 18 18 18 19 21 22 nan nan nan nan nan nan nan nan nan nan nan nan nan nan nan nan nan nan nan nan nan nan nan nan nan nan
27 26 27 26 25 23 21 18 18 18 19 19 19 19 21 23 nan nan nan nan nan nan nan nan nan nan nan nan nan nan nan nan nan nan nan nan nan nan nan nan nan nan
28 26 26 26 25 23 21 19 18 19 19 19 19 20 20 23 24 nan nan nan nan nan nan nan nan nan nan nan nan nan nan nan nan nan nan 33 nan 34 34 33 nan nan
27 26 26 24 24 23 22 20 19 19 18 20 20 20 21 22 24 nan nan nan nan nan nan nan nan nan nan nan nan nan nan nan 31 31 31 33 35 34 33 nan nan nan
26 25 24 23 23 23 23 22 20 19 19 21 21 21 21 23 23 nan nan nan nan nan nan nan nan nan nan nan nan nan nan 32 31 31 nan 36 nan 34 nan nan nan nan
25 23 22 22 23 24 24 23 21 20 20 20 22 22 22 23 25 nan nan nan nan nan nan nan nan nan nan nan nan nan 31 31 31 31 nan nan nan nan nan nan nan nan
24 22 21 22 23 25 24 23 21 21 22 22 21 23 23 23 25 26 nan nan nan nan 23 24 nan nan nan nan nan nan nan nan nan nan nan nan nan nan nan nan nan nan
23 24 23 23 24 25 25 23 21 21 22 23 22 22 22 25 26 26 nan nan nan 24 23 24 26 nan nan nan nan nan nan nan nan nan nan nan nan nan nan nan nan nan
26 25 24 24 25 26 26 24 22 22 23 23 23 22 22 24 26 27 27 25 nan 24 24 24 25 nan nan nan nan nan nan nan 33 nan nan nan nan nan nan nan nan nan
27 27 25 26 26 27 27 25 24 23 23 23 23 24 24 25 26 26 26 26 nan 25 25 25 25 26 nan nan nan nan nan 34 nan nan nan nan nan nan nan nan nan nan
28 27 28 27 28 28 27 26 25 24 23 23 24 24 25 26 26 27 26 26 27 27 27 26 27 27 33 35 36 38 35 35 nan nan nan nan nan nan nan nan nan nan
29 30 29 29 29 29 28 26 25 24 24 24 25 25 25 26 26 26 27 27 28 28 28 28 28 31 36 37 38 39 37 nan nan nan nan nan nan nan nan nan nan nan
30 31 32 31 30 29 27 25 25 24 24 25 25 25 26 25 25 27 28 28 29 29 29 29 30 34 38 38 37 38 38 37 35 nan nan nan nan nan nan nan nan nan
30 31 31 33 32 31 29 25 24 23 23 24 26 26 26 24 25 28 29 29 29 30 31 30 32 35 39 37 36 37 39 nan nan nan nan nan nan nan nan nan nan nan
30 30 32 32 33 32 30 26 25 23 23 24 26 27 26 26 26 28 29 30 30 31 32 32 32 36 nan 38 37 37 38 nan nan nan nan nan nan nan nan nan nan nan
29 30 32 34 33 31 29 27 25 24 25 26 27 27 27 27 26 29 31 31 32 33 34 33 31 34 nan 38 37 36 39 36 nan nan nan nan nan nan nan nan nan nan
30 31 31 34 35 32 27 25 25 25 26 28 29 28 28 27 29 30 31 33 34 34 35 33 31 32 36 38 37 39 39 38 nan nan nan nan nan nan nan nan nan nan
31 31 32 34 36 33 30 26 24 24 26 27 29 29 27 27 29 31 32 33 35 34 33 34 32 33 36 39 40 nan nan nan nan nan nan nan nan nan nan nan nan nan
31 30 32 36 37 34 29 26 24 25 26 26 26 26 27 29 30 32 32 32 32 32 32 34 34 34 nan nan nan 43 nan nan nan nan nan nan nan nan nan nan nan nan
29 30 33 36 35 32 28 24 26 28 29 28 26 26 28 29 30 31 33 31 32 32 31 34 37 36 nan nan nan nan nan nan nan nan nan nan nan nan nan nan nan nan
Wind_Direction
292 288 286 282 280 282 286 286 285 287 nan nan nan nan nan nan nan nan nan nan nan nan nan nan nan nan nan nan nan nan nan nan nan nan nan nan nan nan nan nan nan nan
292 287 281 277 274 276 278 281 285 290 nan nan nan nan nan nan nan nan nan nan nan nan nan nan nan nan nan nan nan nan nan nan nan nan nan nan nan nan nan nan nan nan
288 285 282 280 279 280 280 277 282 287 nan 289 291 nan nan 296 298 nan nan nan nan nan nan nan nan nan nan nan nan nan nan nan nan nan nan nan nan nan nan nan nan nan
288 285 280 278 276 279 277 279 281 284 285 289 297 296 nan 296 nan nan nan nan nan nan nan nan nan nan nan nan nan nan nan nan nan nan nan nan nan nan nan nan nan nan
286 280 276 275 273 276 278 285 290 290 292 294 293 291 292 294 nan nan nan nan nan nan nan nan nan nan nan nan nan nan nan nan nan nan nan nan nan nan nan nan nan nan
279 277 275 275 276 279 282 289 291 290 290 294 298 290 291 293 nan nan nan nan nan nan nan nan nan nan nan nan nan nan nan nan nan nan nan nan nan nan nan nan nan nan
278 275 276 275 278 282 285 289 286 287 291 294 290 293 291 292 nan nan nan nan nan nan nan nan nan nan nan nan nan nan nan nan nan nan nan nan nan nan nan nan nan nan
277 273 276 276 281 282 285 287 285 287 290 292 297 294 294 294 nan nan nan nan nan nan nan nan nan nan nan nan nan nan nan nan nan nan nan nan nan nan nan nan nan nan
275 277 279 282 284 282 285 285 284 286 291 296 295 293 292 294 294 nan nan nan nan nan nan nan nan nan nan nan nan nan nan nan nan nan nan 301 nan 304 304 303 nan nan
278 278 282 282 283 281 287 285 284 286 290 294 294 293 293 290 293 nan nan nan nan nan nan nan nan nan nan nan nan nan nan nan 298 299 300 301 303 304 302 nan nan nan
278 279 280 282 282 281 286 285 285 285 288 294 293 294 292 291 292 nan nan nan nan nan nan nan nan nan nan nan nan nan nan 296 298 301 nan 304 nan 302 nan nan nan nan
278 276 280 282 282 281 285 285 285 287 291 291 295 295 292 294 296 nan nan nan nan nan nan nan nan nan nan nan nan nan 295 298 303 304 nan nan nan nan nan nan nan nan
276 276 276 279 281 281 281 284 287 288 291 294 294 295 295 294 294 296 nan nan nan nan 291 290 nan nan nan nan nan nan nan nan nan nan nan nan nan nan nan nan nan nan
273 273 277 279 278 281 286 288 287 286 288 290 291 295 296 296 297 298 nan nan nan 295 294 291 291 nan nan nan nan nan nan nan nan nan nan nan nan nan nan nan nan nan
269 271 274 277 280 283 287 289 286 284 286 289 293 293 291 294 294 294 294 294 nan 296 295 293 295 nan nan nan nan nan nan nan 302 nan nan nan nan nan nan nan nan nan
272 271 275 279 283 286 288 286 282 282 285 289 292 292 292 291 289 290 292 294 nan 294 293 294 296 296 nan nan nan nan nan 299 nan nan nan nan nan nan nan nan nan nan
272 274 278 283 284 284 283 283 282 281 284 287 289 290 290 289 288 289 289 289 291 292 293 294 296 298 306 305 305 302 298 298 nan nan nan nan nan nan nan nan nan nan
275 278 281 285 285 286 286 284 282 283 285 286 286 287 286 285 288 289 286 285 285 290 294 295 295 300 305 304 303 302 299 nan nan nan nan nan nan nan nan nan nan nan
277 284 288 288 288 287 286 284 283 283 284 285 288 285 284 289 290 285 284 284 288 292 293 293 292 300 304 305 303 302 302 299 298 nan nan nan nan nan nan nan nan nan
279 286 290 292 293 293 289 285 281 282 282 281 281 282 285 287 286 288 285 288 291 293 292 292 293 301 304 303 303 302 302 nan nan nan nan nan nan nan nan nan nan nan
283 289 291 293 295 291 286 282 276 275 282 281 280 285 288 290 291 290 289 290 291 291 291 292 294 303 nan 301 301 305 308 nan nan nan nan nan nan nan nan nan nan nan
280 285 289 291 290 288 286 282 278 281 285 278 276 278 280 280 280 284 289 292 291 292 292 294 295 301 nan 303 306 306 306 300 nan nan nan nan nan nan nan nan nan nan
284 288 289 292 294 290 286 280 275 274 277 278 282 285 288 291 293 293 292 293 293 293 294 294 292 298 300 303 305 306 303 301 nan nan nan nan nan nan nan nan nan nan
282 287 291 292 288 287 282 277 275 274 281 283 288 291 295 295 292 289 289 291 293 293 295 294 292 297 304 304 306 nan nan nan nan nan nan nan nan nan nan nan nan nan
281 286 290 290 285 277 275 281 279 277 278 283 288 291 290 285 285 286 286 287 290 291 290 292 291 295 nan nan nan 310 nan nan nan nan nan nan nan nan nan nan nan nan
275 283 285 282 279 269 261 270 275 274 279 282 282 284 283 283 284 285 288 285 283 286 289 288 290 294 nan nan nan nan nan nan nan nan nan nan nan nan nan nan nan nan